GEFSMA_con_prob3kmehi_360.txt.gz
EHI
3 2 1 2 1 1 2 3 2 1 0 0 0 0 0 0 0 1 3 7 9 7 3 1 1 1 1 2 2 1 2 3 2 1 1 0 0 0 0 0 0 0 0
4 3 3 3 3 2 2 2 1 0 0 0 0 0 0 0 0 0 2 5 7 7 6 4 3 2 2 3 2 2 3 4 4 2 2 1 0 0 0 0 0 0 0
4 3 4 4 4 3 3 2 1 0 0 0 0 0 0 0 1 1 3 4 5 6 8 7 4 3 3 3 2 1 2 4 5 4 2 2 1 1 2 1 1 0 0
3 5 6 5 5 4 3 2 1 0 0 0 0 0 0 1 2 3 4 5 5 7 9 8 5 5 4 3 3 3 3 4 6 6 5 4 4 4 4 4 2 1 0
4 6 7 7 5 4 3 3 1 0 0 0 0 1 1 2 4 6 7 7 8 9 9 8 7 6 5 4 4 5 5 5 6 7 7 7 6 5 4 4 4 3 2
7 7 7 7 6 5 5 5 4 2 2 2 2 2 3 3 6 9 11 10 9 8 8 7 5 5 5 5 4 4 5 5 5 6 7 9 9 6 4 4 5 4 4
7 7 7 8 8 7 7 8 7 4 3 3 3 4 3 4 6 9 11 10 7 5 4 3 3 4 5 4 2 2 3 4 5 4 5 8 9 7 6 5 5 5 4
7 7 8 9 9 9 8 8 8 5 3 3 3 4 3 4 5 7 9 7 3 1 1 1 1 2 3 2 2 2 2 2 3 3 4 6 7 6 5 6 6 5 4
7 7 8 9 9 9 8 8 7 6 5 5 6 5 4 4 5 5 6 5 2 0 0 0 1 1 1 2 2 2 1 1 1 1 2 4 5 5 5 6 6 5 4
7 8 9 10 10 10 10 10 9 9 9 9 9 9 7 7 7 6 6 5 3 1 1 0 0 0 0 1 2 1 0 0 0 0 1 3 5 5 6 6 6 5 4
5 7 10 12 13 14 15 16 15 14 14 14 13 11 10 9 8 7 7 7 5 3 1 0 1 1 1 1 1 0 0 0 0 0 0 1 2 4 5 5 5 5 4
4 6 10 13 15 16 20 21 20 18 20 21 20 16 13 11 10 10 8 7 6 4 2 1 1 1 1 2 2 1 1 1 0 0 0 0 0 2 3 4 5 5 5
4 7 10 12 14 16 20 22 22 22 24 25 25 24 21 16 13 12 10 8 6 5 4 2 1 1 1 2 3 2 2 1 0 0 0 0 0 1 2 3 3 4 4
4 8 11 12 14 16 20 22 23 26 28 27 26 28 27 23 19 16 13 10 8 7 6 4 2 0 0 1 1 1 1 0 0 0 0 0 0 0 1 1 1 2 2
7 8 10 12 14 17 21 22 24 27 29 27 26 27 27 26 23 19 15 13 11 8 7 6 5 2 1 0 0 0 1 0 0 0 0 0 0 0 0 0 0 1 1
11 11 12 12 13 16 20 21 21 23 25 24 24 25 24 23 22 19 16 14 11 9 8 8 7 4 2 1 0 0 0 0 0 0 0 0 0 0 0 0 0 0 0
19 19 17 15 13 14 18 18 17 18 20 21 21 21 22 21 21 19 18 14 10 9 8 7 6 5 3 2 2 1 1 0 0 0 0 0 0 0 0 0 0 0 0
25 25 24 22 19 18 19 18 16 15 16 17 18 19 20 20 20 20 19 16 12 9 7 6 4 3 3 2 2 2 1 1 0 0 0 0 0 0 0 0 0 0 0
25 26 27 27 25 23 22 21 19 17 16 15 15 17 18 17 18 18 19 17 14 10 7 4 2 2 1 1 1 1 1 1 1 0 0 0 0 0 0 0 0 0 0
18 21 25 27 25 24 24 24 22 20 17 15 14 15 16 15 15 16 16 15 13 10 8 4 2 2 1 1 1 0 1 2 2 2 1 1 0 0 0 0 0 0 0
12 15 20 22 23 22 21 21 20 19 17 15 15 15 14 12 11 10 9 9 9 8 6 5 3 2 2 2 2 1 1 4 5 4 4 3 1 0 1 1 0 0 0
13 15 17 20 21 19 15 13 14 16 16 14 15 14 11 9 7 4 3 3 4 4 5 5 3 3 4 4 3 2 3 5 6 6 6 4 3 2 2 1 0 0 0
17 17 18 19 18 14 10 6 6 10 12 12 13 12 8 6 4 2 1 1 1 3 4 5 4 4 6 6 6 5 5 6 6 6 5 4 4 3 2 1 0 0 0
20 19 19 18 15 12 8 3 2 4 7 9 9 9 7 5 4 3 2 2 1 2 3 3 3 4 5 6 6 6 7 7 6 5 4 4 4 3 2 0 0 0 0
19 18 17 16 15 13 8 2 1 3 4 6 7 7 6 6 4 3 4 4 3 3 3 2 2 2 2 2 3 5 6 7 7 5 4 3 3 3 2 1 0 0 0
17 16 15 15 16 14 8 3 2 3 4 5 7 7 6 5 4 3 5 6 5 5 4 3 2 1 0 0 1 2 5 8 8 6 4 3 2 3 3 2 1 0 0

GEFSMA_con_prob3kmehi_366.txt.gz
EHI
4 7 12 13 9 8 8 10 11 11 11 9 6 5 5 4 4 3 5 10 14 15 16 15 13 10 8 7 6 5 4 4 3 1 0 1 1 1 3 3 3 3 2
7 9 12 12 11 9 10 9 10 12 14 12 9 8 7 7 6 5 6 10 14 16 16 16 15 13 10 9 7 6 6 6 4 2 2 3 3 3 3 4 4 4 4
12 13 13 13 12 11 11 11 10 11 13 13 12 12 11 10 10 9 10 12 14 16 19 20 18 15 13 11 9 10 10 10 7 5 6 8 8 7 7 7 6 5 5
16 15 14 13 13 11 11 12 12 9 8 11 14 13 12 12 13 13 13 15 17 18 20 22 20 17 15 13 11 11 13 14 11 9 8 9 9 9 9 8 7 5 4
15 14 13 13 14 13 11 10 11 10 10 10 11 11 10 12 14 13 12 16 20 21 21 21 20 17 14 12 11 12 14 15 13 11 9 9 8 8 7 6 5 3 2
15 14 12 13 16 16 12 9 9 11 13 11 8 7 8 11 13 12 12 15 19 21 20 20 17 14 12 12 12 14 15 14 12 11 11 9 8 7 5 4 3 2 1
15 15 14 14 16 17 14 12 12 12 14 13 10 9 10 11 12 13 14 17 17 18 18 16 15 14 13 13 14 16 15 14 12 11 10 9 8 8 7 5 3 2 1
14 15 16 16 16 17 18 18 17 15 15 15 15 15 16 17 15 14 17 18 17 16 14 13 13 14 15 15 16 16 14 13 12 10 8 7 7 7 7 5 4 4 3
15 15 16 17 15 16 21 24 24 21 19 18 19 20 22 23 20 17 17 17 16 14 13 11 11 13 15 16 16 15 13 12 11 10 7 5 6 6 5 4 4 4 3
19 17 18 20 19 19 21 23 25 26 24 22 22 23 25 25 23 20 18 17 15 13 12 12 12 15 14 14 14 13 10 9 9 8 5 4 5 4 3 3 3 3 2
24 24 24 26 26 24 21 19 22 26 26 24 23 24 26 27 26 22 20 19 16 14 14 13 14 15 14 11 10 9 7 5 4 4 3 3 4 3 3 3 3 3 3
28 29 30 31 31 27 23 22 23 25 24 22 22 24 26 28 29 26 23 22 20 18 17 16 16 15 12 9 7 5 3 1 1 1 2 3 3 3 3 3 3 3 3
28 29 32 33 31 28 26 27 27 26 23 22 22 24 25 26 28 27 26 24 20 19 20 18 16 14 10 7 5 3 1 0 0 0 1 1 2 2 2 3 3 3 3
24 26 31 33 33 29 27 27 27 25 24 23 24 25 25 24 25 26 27 24 18 16 17 17 15 13 10 7 5 2 1 0 0 0 0 0 1 1 1 1 2 2 2
23 25 29 32 33 31 27 26 25 25 25 25 25 25 25 24 23 24 25 23 18 13 13 14 14 13 11 7 4 3 3 1 0 0 0 0 0 0 0 0 1 1 1
27 28 27 29 32 31 28 26 26 26 26 25 25 24 24 23 22 23 23 22 18 14 14 14 14 13 10 6 4 4 4 2 1 0 0 0 0 0 0 0 0 0 0
32 31 29 29 32 32 29 28 27 26 25 25 25 23 21 20 20 21 22 22 19 16 14 14 13 13 10 6 4 4 3 2 2 1 0 0 0 0 0 0 0 0 0
32 31 30 30 31 32 30 28 27 26 25 24 25 22 19 19 19 18 19 19 17 15 13 11 11 12 10 7 6 5 4 3 2 1 0 0 0 0 0 0 0 0 0
31 30 29 28 29 30 28 25 24 24 23 24 24 22 20 19 19 17 15 15 14 12 11 9 9 10 10 8 8 7 6 6 4 1 0 0 0 0 0 0 0 0 0
29 29 28 26 25 24 22 20 19 19 21 23 23 21 20 19 18 15 14 13 12 11 9 8 8 9 10 10 9 9 8 7 5 2 1 1 0 0 0 0 0 0 0
26 27 27 25 22 19 16 14 14 15 19 21 21 20 19 17 14 12 11 11 11 10 9 8 6 6 8 9 9 9 7 6 5 5 4 3 1 0 0 0 0 0 0
26 27 26 24 21 17 13 12 12 15 18 19 19 18 16 13 10 8 7 7 7 8 7 7 6 6 7 9 8 8 7 5 4 5 5 4 2 1 0 0 0 0 0
28 28 26 24 21 16 11 9 10 14 18 18 16 14 12 9 7 6 5 5 5 5 6 6 6 7 8 8 8 7 7 5 3 3 4 3 2 1 1 1 0 0 0
28 26 24 22 18 13 8 6 7 12 17 16 14 13 11 8 6 5 6 6 6 5 4 4 5 6 7 7 7 6 4 3 3 4 4 3 2 2 2 2 1 0 0
27 23 20 19 16 12 7 4 5 11 14 15 14 13 12 10 6 4 6 8 8 6 4 3 3 4 4 4 4 4 2 1 3 6 6 4 3 2 2 2 1 0 0
26 21 17 16 15 12 7 4 4 10 14 15 14 13 12 11 6 3 4 7 8 6 5 4 2 1 2 1 1 2 2 1 4 7 6 4 3 3 3 2 1 0 0

GEFSMA_con_prob3kmehi_372.txt.gz
EHI
1 1 2 3 4 4 4 3 3 3 2 2 2 2 2 1 1 1 2 4 6 7 9 11 10 9 8 8 8 6 4 2 1 0 1 1 1 1 2 2 1 0 0
1 2 3 3 3 3 3 2 2 2 1 1 1 2 2 2 2 1 1 3 5 6 9 11 12 11 10 9 9 7 5 3 2 2 2 1 1 0 1 1 0 0 0
3 3 3 3 2 1 1 1 0 0 0 0 0 1 1 2 2 1 1 1 3 4 8 11 13 12 11 10 9 8 6 5 5 5 4 3 2 1 0 0 0 0 0
5 4 3 2 1 0 0 0 0 0 0 0 0 0 1 2 2 2 2 1 1 3 6 11 13 14 12 8 6 6 5 5 5 5 4 4 4 3 1 0 0 0 0
3 3 2 1 1 0 0 0 0 0 0 0 0 0 0 1 2 3 3 2 2 3 7 12 15 16 14 8 5 4 4 4 4 4 4 4 5 4 2 1 0 0 0
1 2 2 1 0 0 0 0 0 0 0 0 0 0 0 0 1 2 3 2 2 3 6 10 12 11 10 8 5 4 5 5 4 4 5 6 5 4 2 1 0 0 0
2 3 3 2 0 0 0 0 0 0 0 0 0 0 0 0 0 1 3 3 1 2 5 6 5 4 4 6 5 4 6 7 6 6 7 8 7 4 1 0 0 0 0
3 4 4 2 1 1 2 1 1 0 0 0 0 0 0 0 0 1 2 3 1 1 3 3 1 0 1 2 2 2 5 7 7 7 8 9 8 4 1 0 0 0 0
4 4 4 3 3 3 3 2 1 1 1 1 1 2 2 1 1 0 1 1 0 1 2 2 1 0 0 0 0 1 4 6 6 6 6 6 5 2 0 0 0 0 0
5 5 5 5 5 5 5 3 2 3 4 4 4 5 4 2 1 0 0 0 0 0 1 1 1 0 0 0 0 1 4 6 4 3 3 2 1 0 0 0 0 0 0
6 7 7 6 6 6 6 4 4 7 8 8 8 8 6 3 1 0 0 0 0 0 0 0 0 0 0 1 1 2 4 4 3 1 1 0 0 0 0 0 0 0 0
6 7 8 7 6 6 6 7 8 9 10 10 9 9 8 5 3 2 2 2 1 0 0 0 0 0 0 0 1 2 2 1 1 0 0 0 0 1 1 1 1 0 0
7 7 8 9 8 6 7 9 10 9 8 9 9 9 11 10 7 7 6 5 4 2 0 0 0 0 0 0 1 2 1 0 0 0 0 0 0 1 2 2 1 0 0
7 8 9 11 10 8 10 12 11 9 8 9 9 10 11 11 10 10 9 8 6 3 1 0 0 0 0 0 2 2 2 0 0 0 0 0 0 1 1 1 1 0 0
7 8 10 11 10 9 11 12 10 8 9 10 10 10 10 10 10 10 10 8 7 5 2 0 0 0 0 0 1 2 1 0 0 0 0 0 0 0 0 0 0 0 0
8 9 9 9 8 8 8 9 7 7 7 8 8 8 9 9 8 8 8 7 7 6 4 1 0 0 0 0 0 0 0 0 0 0 0 0 0 0 0 0 0 0 0
9 9 10 9 8 7 6 6 6 6 6 6 5 5 6 6 4 5 6 6 6 6 4 2 1 1 0 0 0 0 0 1 0 0 0 0 0 0 0 0 0 0 0
8 9 11 11 10 9 9 9 8 7 6 5 3 3 2 2 1 2 3 4 4 4 4 3 2 1 0 0 0 0 0 0 0 0 0 0 0 0 0 0 0 0 0
7 8 10 11 11 11 12 11 9 7 6 5 4 4 3 2 1 1 2 3 3 3 3 3 2 1 0 0 0 0 0 0 0 0 0 0 0 0 0 0 0 0 0
7 7 8 8 9 11 11 11 10 7 6 6 6 7 6 5 3 2 2 2 2 1 2 2 1 0 0 0 0 0 0 0 0 0 0 0 0 0 0 0 0 0 0
8 7 7 7 8 8 9 10 9 7 7 7 8 8 7 6 4 2 2 1 0 0 1 1 0 0 0 0 0 0 0 0 0 0 0 0 0 0 0 0 0 0 0
7 7 7 7 7 7 7 7 6 6 7 8 8 6 5 5 3 1 1 0 0 0 0 1 1 1 0 0 1 0 0 0 0 0 0 0 0 0 0 0 0 0 0
5 6 7 7 7 6 4 3 3 4 6 7 6 4 4 4 2 1 0 0 0 0 0 1 2 1 0 0 1 1 0 0 0 0 0 0 0 0 0 0 0 0 0
4 6 8 7 6 5 3 2 2 3 5 6 4 3 3 3 2 1 0 0 0 0 0 1 1 1 0 0 0 1 0 0 0 0 0 0 0 0 0 0 0 0 0
4 6 7 7 6 5 3 2 2 3 5 5 4 3 3 2 1 0 0 0 0 0 0 0 0 0 0 0 0 0 0 0 0 0 0 0 0 0 0 0 0 0 0
4 5 6 7 6 6 4 3 2 3 5 5 4 3 3 2 1 0 0 0 0 0 0 0 0 0 0 0 0 0 0 0 0 0 0 0 0 0 0 0 0 0 0

GEFSMA_con_prob3kmehi_378.txt.gz
EHI
0 1 2 2 1 0 0 0 0 0 1 2 3 2 1 1 2 2 1 1 4 7 7 8 8 5 3 2 2 2 3 4 3 2 1 1 1 2 3 3 3 3 3
0 0 1 1 1 0 0 0 0 0 0 1 2 1 0 0 1 1 0 0 3 6 8 10 10 6 3 1 1 1 2 3 4 3 2 2 2 2 2 2 3 4 4
0 0 0 0 0 0 0 0 0 0 0 0 0 0 0 0 0 0 0 0 1 4 9 11 12 9 5 1 0 0 1 4 5 5 4 2 2 2 2 2 2 3 4
0 0 0 0 0 0 0 0 0 0 0 0 0 0 0 0 0 0 0 0 0 2 5 9 10 10 8 5 3 3 3 5 5 6 5 4 4 4 4 3 2 2 2
0 0 0 0 0 0 0 0 0 0 0 0 0 0 0 0 0 0 0 0 0 0 1 5 8 9 9 8 6 5 4 5 5 5 6 6 6 6 4 3 1 0 0
0 1 1 0 0 0 0 0 0 0 0 0 0 0 0 0 0 0 0 0 0 0 0 2 5 8 8 7 6 5 4 5 4 5 6 8 8 7 4 1 0 0 0
1 2 1 0 0 0 0 0 0 0 0 0 0 0 0 0 0 0 0 0 0 0 0 0 2 4 4 3 4 4 5 5 5 6 7 7 7 6 4 1 0 0 0
2 2 1 0 0 0 0 0 0 1 1 1 1 1 0 0 0 0 0 0 0 0 0 0 0 1 1 1 2 4 5 4 4 5 6 5 4 3 2 1 1 0 0
2 1 0 0 0 0 0 0 1 2 2 2 2 2 1 1 1 0 0 0 0 0 0 0 0 0 0 0 1 1 2 2 2 3 4 3 2 1 1 1 0 0 0
2 1 0 0 0 0 0 0 1 2 3 3 3 2 2 2 2 1 0 0 0 0 0 0 0 0 0 0 0 0 0 0 0 1 2 3 3 3 2 1 1 0 0
1 1 1 0 0 0 0 0 0 1 1 2 3 2 2 2 2 1 0 0 0 0 0 0 1 0 0 0 0 0 0 0 0 0 1 3 3 3 3 3 1 0 0
2 2 1 1 1 1 1 1 0 0 0 1 2 2 2 1 1 1 0 0 0 0 0 0 0 0 0 0 0 0 0 0 0 0 1 2 3 4 4 3 1 0 0
1 1 1 1 2 3 3 2 1 0 0 0 1 2 2 2 1 1 0 1 1 1 0 0 0 0 0 0 0 0 0 0 0 0 0 1 2 3 2 1 0 0 0
0 0 0 1 2 4 4 3 2 1 1 1 3 3 4 4 4 3 3 4 4 2 2 2 1 0 0 1 0 0 0 0 0 0 0 0 1 1 1 0 0 0 0
0 0 0 0 1 3 4 3 2 1 2 3 4 5 5 6 6 6 6 7 6 6 5 4 2 1 0 0 0 0 0 0 0 0 0 0 0 0 0 0 0 0 0
0 0 0 0 2 3 2 1 1 1 3 3 4 5 5 6 6 6 6 7 7 7 7 5 3 1 0 0 0 0 0 0 0 0 0 0 0 0 0 0 0 0 0
0 0 0 0 1 2 1 0 1 2 3 3 3 4 4 4 3 3 4 5 6 7 6 4 2 0 0 0 0 0 0 0 0 0 0 0 0 0 0 0 0 0 0
0 0 0 0 0 1 1 1 1 3 3 3 3 4 3 2 1 2 3 4 5 6 5 4 1 0 0 0 0 0 0 0 0 0 0 0 0 0 0 0 0 0 0
0 0 0 0 0 0 1 2 3 4 4 3 4 5 3 2 1 3 4 4 5 5 5 4 2 1 0 0 0 0 0 0 0 0 0 0 0 0 0 0 0 0 0
0 0 0 0 0 0 1 3 4 4 5 5 6 6 4 3 3 4 5 6 6 5 4 3 3 2 1 0 0 0 0 0 0 0 0 0 0 0 0 0 0 0 0
0 0 0 0 0 0 1 3 4 4 6 7 7 6 5 4 3 3 4 6 6 5 4 4 3 2 1 0 0 0 0 0 0 0 0 0 0 0 0 0 0 0 0
0 0 0 0 0 0 1 2 3 4 6 8 8 6 4 3 2 1 2 3 3 4 4 4 4 2 1 0 0 0 0 0 0 0 0 0 0 0 0 0 0 0 0
1 1 1 1 0 0 0 1 2 4 5 6 6 4 3 3 2 1 1 1 1 2 3 4 3 2 1 0 0 0 0 0 0 0 0 0 0 0 0 0 0 0 0
3 2 2 1 1 0 0 0 1 4 5 4 3 3 3 2 2 1 1 1 2 2 2 2 2 2 1 0 0 0 0 0 0 0 0 0 0 0 0 0 0 0 0
5 4 2 1 2 2 2 0 1 4 4 3 3 2 2 1 1 0 0 1 3 3 1 1 1 1 0 0 0 0 0 0 0 0 0 0 1 1 0 0 0 0 0
6 5 3 2 3 4 3 1 2 4 4 3 3 2 1 0 0 0 0 1 2 3 2 1 0 0 0 0 0 0 0 0 0 0 0 1 2 2 1 0 0 0 0

GEFSMA_con_prob3kmehi_384.txt.gz
EHI
1 2 3 3 2 3 3 3 2 2 2 1 0 0 0 0 0 0 1 4 6 4 2 2 2 2 2 4 5 6 5 5 6 6 6 5 4 3 3 3 3 3 3
0 1 2 2 3 3 3 3 3 3 2 1 1 1 1 1 0 0 1 3 5 4 3 4 5 5 4 5 5 6 5 5 5 6 6 5 4 3 3 3 3 3 3
0 0 0 1 2 3 3 3 3 3 3 3 2 2 2 2 1 0 0 1 2 3 4 6 7 7 6 6 6 7 6 5 4 4 5 4 3 3 3 3 3 3 3
0 0 0 0 1 2 2 2 3 4 5 4 3 3 3 3 1 0 0 0 1 3 5 7 9 10 9 9 9 8 7 5 3 3 4 4 4 4 3 3 3 3 3
0 0 0 0 0 1 1 1 2 4 5 4 3 2 3 3 2 0 0 1 3 4 5 7 11 13 14 15 14 11 8 6 6 6 6 6 6 5 4 3 3 3 3
0 0 0 0 0 0 0 1 2 3 3 3 2 1 1 1 1 0 0 1 3 4 4 7 10 13 16 18 18 15 11 10 9 9 9 8 7 5 4 3 3 2 1
1 0 1 1 1 1 0 1 1 1 1 2 2 1 0 0 0 0 1 2 2 3 4 6 9 11 15 19 19 17 14 12 10 9 9 8 6 5 5 4 2 1 0
3 3 3 3 2 1 1 2 2 2 2 4 4 3 1 0 0 0 2 3 4 4 4 6 8 10 14 18 18 15 13 10 8 6 7 6 5 4 4 4 3 1 0
7 6 5 3 1 1 2 4 5 5 5 7 9 8 6 4 2 2 2 4 6 5 3 4 7 10 15 18 16 13 11 8 5 4 4 5 4 3 2 2 3 1 1
10 9 6 2 1 2 4 5 7 8 8 10 12 13 11 9 6 3 2 3 5 5 3 3 5 9 15 18 16 13 10 6 4 3 3 3 3 2 1 1 2 2 2
12 11 8 5 4 5 6 7 7 7 8 10 13 14 13 10 7 4 1 1 3 4 4 4 4 7 12 16 16 13 9 5 3 2 2 1 1 1 0 1 2 3 3
13 13 11 9 8 10 12 12 10 7 8 11 13 13 10 8 6 3 1 0 1 2 4 6 6 6 9 13 15 13 8 3 1 1 1 1 1 0 0 1 2 3 3
14 13 11 9 10 14 16 16 14 11 10 12 12 10 8 6 5 3 1 0 1 2 3 5 8 9 10 12 13 12 7 2 0 0 0 0 0 0 0 0 1 3 3
12 11 9 7 7 10 14 16 16 13 11 10 10 10 8 6 5 3 1 2 3 3 2 4 7 10 11 11 11 11 9 3 0 0 0 0 0 0 0 0 1 2 2
9 10 8 5 3 6 11 15 16 14 11 10 11 11 10 8 6 5 4 6 7 6 6 6 7 8 10 11 10 11 10 5 1 0 0 0 0 0 0 0 0 1 1
9 10 8 5 3 5 9 13 15 14 12 10 11 11 10 9 8 8 9 10 11 11 10 10 8 7 9 10 10 11 11 7 3 0 0 0 0 0 0 0 0 0 0
10 9 7 5 3 4 6 10 12 12 11 9 8 8 7 8 9 11 13 14 13 12 12 11 9 9 10 10 10 11 11 8 4 1 0 0 0 0 0 0 0 0 0
9 8 6 4 3 3 4 5 6 7 7 5 4 5 6 7 9 11 13 13 12 12 11 10 10 11 11 10 10 10 9 7 4 1 0 0 0 0 0 0 0 0 0
7 7 6 5 4 3 3 3 2 3 4 4 4 5 6 8 9 10 11 11 11 12 12 11 10 10 10 9 10 10 8 7 5 2 0 0 0 0 0 0 0 0 0
7 7 6 6 6 4 3 3 3 3 3 4 5 7 8 9 9 10 10 10 10 12 13 12 10 9 8 9 10 9 8 9 8 4 2 1 1 0 0 0 0 0 0
9 8 8 8 7 4 3 4 4 4 4 5 7 8 9 9 9 8 8 8 8 10 12 11 10 9 10 10 10 9 8 9 9 7 5 3 1 1 1 1 0 0 0
10 10 9 9 8 5 2 2 3 3 4 5 7 9 10 10 9 7 5 4 4 6 8 8 8 8 9 9 9 9 9 9 9 8 7 4 3 3 4 3 1 0 0
10 10 10 9 9 6 2 0 1 3 5 6 7 9 10 10 9 8 5 3 3 3 4 5 6 5 5 6 9 10 10 10 8 8 7 5 4 5 4 3 1 0 0
9 9 8 8 9 7 2 0 0 2 5 6 7 9 11 10 9 7 6 4 4 3 3 3 4 3 2 5 8 9 9 8 7 6 5 4 4 4 3 2 1 0 0
7 7 7 6 7 6 2 0 1 3 5 6 7 7 8 8 7 6 5 4 4 3 2 2 2 1 1 2 4 6 7 6 5 4 4 3 4 3 2 2 1 0 0
6 6 6 5 5 5 3 1 1 3 6 6 6 6 5 6 5 4 4 4 3 3 2 2 1 0 0 0 1 4 6 6 5 4 3 3 4 3 1 1 0 0 0